Regional Weather Roundup
Issued by NWS

Home | Current Version | Previous Version | Graphics & Text | Print | Product List | Glossary On
Versions: 1 2 3 4 5 6 7 8 9 10 11 12 13 14 15 16 17 18 19 20 21 22 23 24 25 26 27 28 29 30 31 32 33 34 35 36 37 38 39 40 41 42 43 44 45 46 47 48 49 50
000
ASUS43 KIND 211409
RWRIN

WEATHER ROUNDUP FOR INDIANA
NATIONAL WEATHER SERVICE INDIANAPOLIS IN
1000 AM EDT FRI JUL 21 2017

NOTE: "FAIR" INDICATES FEW OR NO CLOUDS BELOW 12,000 FEET WITH NO
SIGNIFICANT WEATHER AND/OR OBSTRUCTIONS TO VISIBILITY.

* - STATION DOES NOT REPORT WEATHER SUCH AS PRECIPITATION OR FOG.

+ - STATION NOT QUALITY CONTROLLED BY THE NATIONAL WEATHER SERVICE.
    USE DATA WITH CAUTION...ESPECIALLY DEWPOINT AND RELATIVE
    HUMIDITY OBSERVATIONS.

INZ001>003-010>013-019-020-211500-
NORTHWEST INDIANA

CITY           SKY/WX    TMP DP  RH WIND       PRES   REMARKS
GARY /AIRPORT/ PTSUNNY   81  70  69 E7        29.99R
KNOX *+        CLOUDY    77  72  83 SE6       29.98F
LA PORTE +     PTSUNNY   77  71  82 E9        29.99F
MICHIGAN CITY+ MOSUNNY   79  72  78 E3        29.99S
MONTICELLO +   CLOUDY    76  71  87 E5        29.97F
RENSSELAER +   CLOUDY    73  70  88 CALM      29.99R
VALPARAISO     PTSUNNY   80  71  74 E9        29.99S

$$

LMZ046-743>745-211500-
SOUTHERN LAKE MICHIGAN

STATION/POSITION TIME  TEMP    WIND        PRES    WAVE
                       AIR SEA DIR/SP/G            HT
                 (UTC) (F)     (DEG/KT/KT) (MB)    (FT)
BURNS HARBOR     1340   79      90/  7/  9 1015.6S
MICHIGAN CITY    1340   77      70/  8/  9   N/A
5NW MICH CITY    1400   75 74   90/  4/  6   N/A     1

$$

INZ004-005-014>016-021>024-211500-
NORTH CENTRAL INDIANA

CITY           SKY/WX    TMP DP  RH WIND       PRES   REMARKS
ELKHART        CLOUDY    73  68  83 NE3       30.00F
GOSHEN         CLOUDY    74  68  81 NE7       30.00F
LOGANSPORT +   CLOUDY    73  72  94 NE3       29.99F
PERU/GRISSOM   CLOUDY    74  74 100 NE6       29.96F
ROCHESTER +    CLOUDY    77  72  83 NE5       30.00S
SOUTH BEND     PTSUNNY   76  69  79 VRB5      30.00F
WARSAW +       CLOUDY    73  70  88 E7        30.00F

$$

INZ006>009-017-018-025>027-211500-
NORTHEAST INDIANA

CITY           SKY/WX    TMP DP  RH WIND       PRES   REMARKS
ANGOLA *+      CLOUDY    72  64  78 CALM      30.02F
AUBURN +       CLOUDY    72  68  88 CALM      30.02F
FORT WAYNE     CLOUDY    75  69  81 NE6       30.00F
HUNTINGTON +   CLOUDY    72  70  96 NE5       29.99F
KENDALLVILLE + PTSUNNY   73  71  93 NE5       30.03F

$$

INZ028-029-035-036-043>045-051>053-211500-
WEST CENTRAL INDIANA

CITY           SKY/WX    TMP DP  RH WIND       PRES   REMARKS
GREENCASTLE +  CLOUDY    75  70  83 S6        30.03S
LAFAYETTE      CLOUDY    73  72  96 CALM      29.99S
TERRE HAUTE    CLOUDY    82  71  69 SE6       30.01F

$$

INZ030>032-037>040-046>048-054>057-064-065-211500-
CENTRAL INDIANA

CITY           SKY/WX    TMP DP  RH WIND       PRES   REMARKS
ANDERSON       CLOUDY    70  66  88 VRB5      30.00F
CP ATTERBURY + CLOUDY    73  68  83 S5        30.03F
COLUMBUS       CLOUDY    73  70  88 S7        30.03F
FRANKFORT +    LGT RAIN  75  72  91 SE3       30.03R
GREENWOOD *+   CLOUDY    73  70  90 SE5       30.03S
INDIANAPOLIS   CLOUDY    74  71  91 SE6       30.01S
-EAGLE CREEK   CLOUDY    75  69  81 E5        30.02R
KOKOMO +       CLOUDY    74  70  87 NE6       29.99F
MARION +       CLOUDY    72  70  94 NE6       29.99F
MT COMFORT *+  PTSUNNY   70  68  94 SE7       30.01F
SHELBYVILLE    CLOUDY    73  69  87 SE6       30.02S
ZIONSVILLE +   CLOUDY   N/A N/A N/A S3        30.03R

$$

INZ033-034-041-042-049-050-058-059-211500-
EAST CENTRAL INDIANA

CITY           SKY/WX    TMP DP  RH WIND       PRES   REMARKS
MUNCIE         LGT RAIN  74  68  81 W6        30.00F
RICHMOND +     RAIN      68  68 100 CALM      30.04F

$$

INZ060-061-067>069-081>083-085>088-211500-
SOUTHWEST INDIANA

CITY           SKY/WX    TMP DP  RH WIND       PRES   REMARKS
EVANSVILLE     CLOUDY    85  75  72 SW5       30.02S
HUNTINGBURG *+ MOSUNNY   82  76  81 CALM      30.04S

$$

INZ062-063-066-070>080-084-089>092-211500-
SOUTH CENTRAL AND SOUTHEAST INDIANA

CITY           SKY/WX    TMP DP  RH WIND       PRES   REMARKS
BEDFORD +      CLOUDY    79  72  78 SE5       30.04F
BLOOMINGTON    PTSUNNY   80  68  66 SE7       30.04S
MADISON *+     CLOUDY    77  73  88 SE5       30.08F
NORTH VERNON + CLOUDY    73  72  94 SE6       30.05F
SEYMOUR +      PTSUNNY   79  72  78 SE5       30.04F

$$





USA.gov is the U.S. government's official web portal to all federal, state and local government web resources and services.